Location: Madrid
(40.4000°N, 3.6830°W)
Time: 00:22:39
(UTC+02:00)

ISS - Pass Details

Date: 20 July 2019
Orbit: 409 x 418 km, 51.6° (Epoch: 22 July)

Event Time Altitude Azimuth Distance (km) Brightness Sun altitude
Exits shadow 06:19:25 10° 245° (WSW) 1,485 -1.6 -7.6°
Maximum altitude 06:20:08 10° 232° (SW) 1,451 -1.7 -7.4°
Drops below altitude 10° 06:20:39 10° 223° (SW) 1,467 -1.6 -7.4°
Sets 06:24:24 0° 179° (S) 2,319 -0.3 -6.8°
